N2PUI Weather Reports


Display with metric or nautical units.
time (UTC)temp
F
wind
direction
speed
MPH
gust
MPH
rain 1hr
in
rain 24hr
in
rain mn
in
humidity
%
barometer
mb
20260505010930 65 121 3.0 3.0 0.00 0.00 0.00 45 1006.9
20260505010426 65 145 5.0 8.0 0.00 0.00 0.00 45 1006.9
20260505005922 66 108 2.0 2.0 0.00 0.00 0.00 45 1006.9
20260505005420 66 141 2.0 3.0 0.00 0.00 0.00 44 1006.7
20260505004917 66 172 4.0 6.0 0.00 0.00 0.00 44 1006.6
20260505004413 66 153 3.0 3.0 0.00 0.00 0.00 44 1006.9
20260505003910 66 117 3.0 3.0 0.00 0.00 0.00 44 1006.4
20260505003407 67 133 3.0 5.0 0.00 0.00 0.00 43 1006.7
20260505002904 67 191 5.0 7.0 0.00 0.00 0.00 42 1006.7
20260505002400 67 161 3.0 3.0 0.00 0.00 0.00 43 1006.4
20260505001859 67 177 5.0 7.0 0.00 0.00 0.00 42 1006.3
20260505001356 67 170 3.0 5.0 0.00 0.00 0.00 42 1006.3
20260505000853 67 163 2.0 2.0 0.00 0.00 0.00 42 1006.3
20260505000351 68 160 0.0 1.0 0.00 0.00 0.00 42 1006.4
20260504235847 68 175 6.0 9.0 0.00 0.00 0.00 41 1006.4
20260504235344 68 151 6.0 8.0 0.00 0.00 0.00 41 1006.4
20260504234840 68 168 2.0 3.0 0.00 0.00 0.00 41 1006.0
20260504234338 68 173 5.0 7.0 0.00 0.00 0.00 40 1006.3
20260504233835 68 147 2.0 2.0 0.00 0.00 0.00 41 1005.9
20260504233330 69 159 2.0 2.0 0.00 0.00 0.00 41 1005.8
20260504232827 69 144 5.0 6.0 0.00 0.00 0.00 39 1005.9
20260504232324 69 145 4.0 6.0 0.00 0.00 0.00 40 1005.8
20260504231821 69 174 5.0 6.0 0.00 0.00 0.00 39 1006.0
20260504231318 70 184 4.0 5.0 0.00 0.00 0.00 38 1005.8
20260504230814 70 178 7.0 8.0 0.00 0.00 0.00 38 1005.7
20260504230312 71 169 3.0 5.0 0.00 0.00 0.00 37 1005.9
20260504225811 71 173 6.0 9.0 0.00 0.00 0.00 36 1005.9
20260504225306 72 243 3.0 6.0 0.00 0.00 0.00 34 1005.9
20260504224804 72 142 2.0 3.0 0.00 0.00 0.00 32 1005.7
20260504224301 72 153 6.0 8.0 0.00 0.00 0.00 32 1005.7
20260504223757 72 185 1.0 1.0 0.00 0.00 0.00 33 1005.7
20260504223253 72 235 5.0 7.0 0.00 0.00 0.00 31 1006.0
20260504222750 72 207 1.0 2.0 0.00 0.00 0.00 32 1006.0
20260504222246 72 228 3.0 5.0 0.00 0.00 0.00 32 1005.9
20260504221744 72 186 2.0 2.0 0.00 0.00 0.00 33 1005.9
20260504221241 73 147 2.0 3.0 0.00 0.00 0.00 34 1005.7
20260504220738 72 177 1.0 2.0 0.00 0.00 0.00 32 1005.8
20260504220235 73 210 2.0 2.0 0.00 0.00 0.00 32 1005.9
20260504215732 72 203 3.0 3.0 0.00 0.00 0.00 33 1005.9
20260504215229 73 111 11.0 13.0 0.00 0.00 0.00 33 1005.8
20260504214725 73 189 2.0 2.0 0.00 0.00 0.00 34 1005.9
20260504214221 73 128 3.0 5.0 0.00 0.00 0.00 33 1005.8
20260504213718 72 218 6.0 8.0 0.00 0.00 0.00 33 1006.0
20260504213215 72 143 4.0 9.0 0.00 0.00 0.00 35 1006.0
20260504212712 71 213 4.0 5.0 0.00 0.00 0.00 33 1006.0
20260504212208 71 245 2.0 2.0 0.00 0.00 0.00 37 1006.0
20260504211706 71 186 5.0 6.0 0.00 0.00 0.00 35 1005.8
20260504211201 70 248 5.0 6.0 0.00 0.00 0.00 36 1006.1
20260504210654 71 205 4.0 5.0 0.00 0.00 0.00 35 1006.1
20260504210150 72 215 4.0 6.0 0.00 0.00 0.00 35 1006.2
20260504205648 72 193 4.0 5.0 0.00 0.00 0.00 35 1006.2
20260504205145 71 203 4.0 5.0 0.00 0.00 0.00 36 1006.2
20260504204643 71 246 7.0 8.0 0.00 0.00 0.00 35 1006.2
20260504204142 71 210 4.0 6.0 0.00 0.00 0.00 37 1006.6
20260504203640 70 199 6.0 8.0 0.00 0.00 0.00 38 1006.4
20260504203138 71 222 7.0 11.0 0.00 0.00 0.00 35 1006.4
20260504202637 71 225 5.0 7.0 0.00 0.00 0.00 35 1006.7
20260504202135 71 208 3.0 3.0 0.00 0.00 0.00 37 1006.8
20260504201631 71 174 4.0 7.0 0.00 0.00 0.00 36 1006.7
20260504201129 71 178 5.0 6.0 0.00 0.00 0.00 36 1006.8
20260504200626 72 249 2.0 3.0 0.00 0.00 0.00 36 1006.7
20260504200123 73 232 3.0 3.0 0.00 0.00 0.00 35 1006.9
20260504195618 73 240 8.0 14.0 0.00 0.00 0.00 34 1006.8
20260504195115 72 148 2.0 3.0 0.00 0.00 0.00 36 1007.0
20260504194612 72 208 1.0 1.0 0.00 0.00 0.00 37 1007.1
20260504194108 71 206 4.0 6.0 0.00 0.00 0.00 37 1007.1
20260504193604 71 231 4.0 6.0 0.00 0.00 0.00 37 1007.1
20260504193103 71 228 3.0 5.0 0.00 0.00 0.00 39 1007.3
20260504192601 71 214 4.0 5.0 0.00 0.00 0.00 39 1007.2
20260504192058 73 254 6.0 8.0 0.00 0.00 0.00 35 1007.4
20260504191556 72 252 5.0 6.0 0.00 0.00 0.00 36 1007.3
20260504191052 71 87 3.0 3.0 0.00 0.00 0.00 37 1007.3
20260504190549 70 224 4.0 5.0 0.00 0.00 0.00 38 1007.4
20260504190045 70 216 7.0 10.0 0.00 0.00 0.00 37 1007.5
20260504185542 71 216 8.0 9.0 0.00 0.00 0.00 39 1007.6
20260504185038 71 215 5.0 7.0 0.00 0.00 0.00 38 1007.5
20260504184534 71 200 5.0 6.0 0.00 0.00 0.00 39 1007.6
20260504184029 71 227 4.0 7.0 0.00 0.00 0.00 39 1007.6
20260504183527 70 187 7.0 10.0 0.00 0.00 0.00 40 1007.6
20260504183025 70 225 5.0 7.0 0.00 0.00 0.00 39 1007.6
20260504182521 69 154 6.0 8.0 0.00 0.00 0.00 40 1007.8
20260504182019 69 231 5.0 6.0 0.00 0.00 0.00 39 1008.0
20260504181516 69 186 1.0 1.0 0.00 0.00 0.00 43 1007.8
20260504181014 68 177 2.0 5.0 0.00 0.00 0.00 41 1007.7
20260504180513 69 210 3.0 5.0 0.00 0.00 0.00 40 1007.8
20260504180011 68 288 3.0 5.0 0.00 0.00 0.00 41 1007.9
20260504175508 69 231 3.0 6.0 0.00 0.00 0.00 39 1008.2
20260504175005 69 181 9.0 11.0 0.00 0.00 0.00 40 1008.1
20260504174503 70 181 3.0 3.0 0.00 0.00 0.00 39 1008.0
20260504174000 68 165 4.0 5.0 0.00 0.00 0.00 40 1008.0
20260504173456 69 211 3.0 5.0 0.00 0.00 0.00 40 1008.2
20260504172954 69 246 6.0 7.0 0.00 0.00 0.00 40 1008.3
20260504172449 68 215 7.0 9.0 0.00 0.00 0.00 41 1008.3
20260504171946 68 222 2.0 3.0 0.00 0.00 0.00 42 1008.4
20260504171443 68 236 11.0 13.0 0.00 0.00 0.00 40 1008.3
20260504170940 68 215 6.0 8.0 0.00 0.00 0.00 41 1008.1
20260504170436 67 256 3.0 5.0 0.00 0.00 0.00 42 1008.6
20260504160356 64 236 4.0 5.0 0.00 0.00 0.00 42 1009.4
20260504150820 61 158 5.0 7.0 0.00 0.00 0.00 45 1009.7
20260504150317 60 209 7.0 9.0 0.00 0.00 0.00 45 1009.7
20260504141247 59 197 2.0 3.0 0.00 0.00 0.00 46 1010.2
20260504140743 59 272 7.0 9.0 0.00 0.00 0.00 45 1010.3
20260504140239 58 225 7.0 9.0 0.00 0.00 0.00 45 1010.4
20260504130708 52 172 5.0 8.0 0.00 0.00 0.00 53 1010.7
20260504130203 51 79 2.0 2.0 0.00 0.00 0.00 54 1010.8
20260504120128 50 240 4.0 6.0 0.00 0.00 0.00 55 1011.4
20260504110555 49 175 4.0 5.0 0.00 0.00 0.00 55 1011.2
20260504100517 46 179 0.0 0.0 0.00 0.00 0.00 59 1011.1
20260504081904 46 291 2.0 3.0 0.00 0.00 0.00 58 1011.1
20260504081401 46 225 1.0 1.0 0.00 0.00 0.00 58 1011.2
20260504080857 46 125 2.0 2.0 0.00 0.00 0.00 58 1011.1
20260504080354 46 166 0.0 1.0 0.00 0.00 0.00 58 1011.3
20260504070321 47 194 0.0 1.0 0.00 0.00 0.00 56 1011.3
20260504060242 48 191 0.0 1.0 0.00 0.00 0.00 54 1011.1
20260504050710 48 265 6.0 8.0 0.00 0.00 0.00 55 1011.4
20260504050206 48 199 2.0 2.0 0.00 0.00 0.00 55 1011.3
20260504045703 48 187 0.0 0.0 0.00 0.00 0.00 57 1011.4
20260504045158 48 194 1.0 2.0 0.00 0.00 0.00 57 1011.3
20260504044656 48 172 1.0 1.0 0.00 0.00 0.00 56 1011.3
20260504044153 49 188 0.0 1.0 0.00 0.00 0.00 56 1011.0
20260504043650 50 187 0.0 1.0 0.00 0.00 0.00 54 1011.1
20260504043147 50 183 0.0 1.0 0.00 0.00 0.00 53 1011.0
20260504042644 50 193 1.0 1.0 0.00 0.00 0.00 53 1011.2
20260504042141 51 181 0.0 0.0 0.00 0.00 0.00 53 1011.0
20260504041637 51 181 0.0 0.0 0.00 0.00 0.00 53 1011.3
20260504041133 51 182 0.0 0.0 0.00 0.00 0.00 52 1011.2
20260504040630 51 272 2.0 3.0 0.00 0.00 0.00 51 1011.2
20260504040127 51 237 2.0 2.0 0.00 0.00 0.00 50 1011.4
20260504035624 51 167 0.0 0.0 0.00 0.00 0.00 52 1011.2
20260504035120 51 191 1.0 2.0 0.00 0.00 0.00 52 1011.2
20260504034619 52 196 0.0 0.0 0.00 0.00 0.00 52 1011.1
20260504034115 52 209 1.0 1.0 0.00 0.00 0.00 50 1011.2
20260504033613 53 194 1.0 1.0 0.00 0.00 0.00 49 1011.0
20260504033110 53 202 0.0 1.0 0.00 0.00 0.00 48 1011.0
20260504032607 53 211 1.0 1.0 0.00 0.00 0.00 47 1011.3
20260504032104 53 290 2.0 2.0 0.00 0.00 0.00 47 1011.3
20260504031601 53 206 2.0 3.0 0.00 0.00 0.00 47 1011.3
20260504031056 53 240 2.0 2.0 0.00 0.00 0.00 47 1011.4
20260504030554 53 246 3.0 3.0 0.00 0.00 0.00 47 1011.2
20260504030050 54 213 1.0 1.0 0.00 0.00 0.00 46 1011.4
20260504025548 54 254 7.0 8.0 0.00 0.00 0.00 45 1011.5
20260504025044 53 316 4.0 6.0 0.00 0.00 0.00 47 1011.4
20260504024542 53 272 5.0 7.0 0.00 0.00 0.00 47 1011.6
20260504024038 52 277 3.0 5.0 0.00 0.00 0.00 50 1011.7
20260504023535 52 273 2.0 2.0 0.00 0.00 0.00 51 1011.7
20260504023031 52 314 5.0 7.0 0.00 0.00 0.00 50 1011.7
20260504022526 52 236 3.0 3.0 0.00 0.00 0.00 50 1011.5
20260504022023 52 229 2.0 2.0 0.00 0.00 0.00 50 1011.7
20260504021521 52 265 8.0 9.0 0.00 0.00 0.00 50 1011.8
20260504021018 53 291 5.0 6.0 0.00 0.00 0.00 50 1011.8
20260504020514 53 351 7.0 8.0 0.00 0.00 0.00 50 1012.0
20260504020011 53 298 3.0 5.0 0.00 0.00 0.00 50 1011.9
20260504015507 53 307 3.0 5.0 0.00 0.00 0.00 49 1011.7
20260504015003 53 320 4.0 6.0 0.00 0.00 0.00 49 1011.7
20260504014459 52 233 2.0 2.0 0.00 0.00 0.00 50 1011.7
20260504013956 53 255 2.0 2.0 0.00 0.00 0.00 50 1011.8
20260504013455 53 308 6.0 7.0 0.00 0.00 0.00 49 1011.6
20260504012950 53 329 7.0 8.0 0.00 0.00 0.00 49 1011.7
20260504012449 52 293 8.0 10.0 0.00 0.00 0.00 49 1011.5
20260504011947 52 322 10.0 13.0 0.00 0.00 0.00 49 1011.9
20260504011442 52 335 6.0 7.0 0.00 0.00 0.00 51 1011.7